APG326 RPVB-RPMR

Flight info

Callsign APG326
Flight time 1h 3m
Altitude 32000
Route NANAS4P NANAS B472 COT W19 MELBY MELBY3P
Aircraft A320/M-SDE3FGHIRWY/LB1

Departure

Time 2026-04-30 20:43
Airport Bacolod-Silay International Airport (RPVB)

Arrival

Time 2026-04-30 21:46
Airport General Santos International Airport (RPMR)
Time Latitude Longitude Altitude Speed Heading
2026-04-30 20:42 10.82389 122.98117 2795 ft 253 kts 275°
2026-04-30 20:43 10.82521 122.96273 3153 ft 276 kts 275°
2026-04-30 20:43 10.82667 122.94285 3797 ft 286 kts 275°
2026-04-30 20:43 10.82820 122.92256 4628 ft 290 kts 275°
2026-04-30 20:44 10.83148 122.88112 6244 ft 297 kts 275°
2026-04-30 20:44 10.83299 122.85999 6980 ft 302 kts 270°
2026-04-30 20:44 10.81787 122.82079 8442 ft 305 kts 222°
2026-04-30 20:45 10.78042 122.80412 9890 ft 299 kts 177°
2026-04-30 20:45 10.75965 122.80654 10355 ft 308 kts 166°
2026-04-30 20:45 10.73775 122.81059 10506 ft 331 kts 166°
2026-04-30 20:46 10.66636 122.82408 12001 ft 356 kts 167°
2026-04-30 20:46 10.64183 122.82862 12619 ft 360 kts 167°
2026-04-30 20:47 10.59193 122.83777 13814 ft 368 kts 167°
2026-04-30 20:47 10.57512 122.84085 14001 ft 376 kts 167°
2026-04-30 20:48 10.51188 122.85254 14434 ft 407 kts 167°
2026-04-30 20:48 10.49340 122.85594 14765 ft 407 kts 167°
2026-04-30 20:48 10.46602 122.86095 15845 ft 391 kts 167°
2026-04-30 20:48 10.43938 122.86580 16622 ft 387 kts 167°
2026-04-30 20:49 10.41285 122.87065 17194 ft 389 kts 167°
2026-04-30 20:49 10.38609 122.87557 17718 ft 391 kts 167°
2026-04-30 20:49 10.35920 122.88054 18208 ft 394 kts 167°
2026-04-30 20:50 10.30516 122.89054 19089 ft 399 kts 167°
2026-04-30 20:50 10.27771 122.89561 19536 ft 402 kts 168°
2026-04-30 20:50 10.25016 122.90068 19993 ft 404 kts 168°
2026-04-30 20:50 10.22238 122.90579 20446 ft 406 kts 168°
2026-04-30 20:51 10.19447 122.91091 20909 ft 408 kts 168°
2026-04-30 20:51 10.13818 122.92127 21808 ft 413 kts 168°
2026-04-30 20:51 10.10975 122.92650 22243 ft 415 kts 168°
2026-04-30 20:52 10.08123 122.93174 22680 ft 417 kts 168°
2026-04-30 20:52 10.05290 122.93693 23080 ft 420 kts 168°
2026-04-30 20:52 9.99508 122.94749 23808 ft 424 kts 168°
2026-04-30 20:53 9.96598 122.95282 24156 ft 426 kts 168°
2026-04-30 20:53 9.93680 122.95821 24492 ft 427 kts 168°
2026-04-30 20:53 9.90747 122.96362 24822 ft 429 kts 168°
2026-04-30 20:54 9.84848 122.97446 25468 ft 432 kts 168°
2026-04-30 20:54 9.81884 122.97987 25783 ft 433 kts 168°
2026-04-30 20:54 9.78946 122.98694 26084 ft 434 kts 160°
2026-04-30 20:55 9.73418 123.01148 26670 ft 435 kts 153°
2026-04-30 20:55 9.70666 123.02446 26964 ft 437 kts 153°
2026-04-30 20:55 9.67897 123.03749 27247 ft 439 kts 154°
2026-04-30 20:56 9.62366 123.06344 27821 ft 442 kts 153°
2026-04-30 20:56 9.59572 123.07652 28099 ft 443 kts 153°
2026-04-30 20:56 9.53949 123.10297 28652 ft 446 kts 153°
2026-04-30 20:57 9.51129 123.11627 28911 ft 448 kts 153°
2026-04-30 20:57 9.48299 123.12960 29153 ft 449 kts 153°
2026-04-30 20:57 9.45457 123.14297 29387 ft 451 kts 153°
2026-04-30 20:58 9.39725 123.16982 29834 ft 455 kts 153°
2026-04-30 20:58 9.36847 123.18329 30038 ft 457 kts 154°
2026-04-30 20:58 9.33957 123.19683 30228 ft 458 kts 154°
2026-04-30 20:58 9.31060 123.21041 30403 ft 460 kts 154°
2026-04-30 20:59 9.25258 123.23753 30676 ft 465 kts 154°
2026-04-30 20:59 9.22296 123.25132 30416 ft 466 kts 154°
2026-04-30 21:00 9.16572 123.27784 29953 ft 443 kts 154°
2026-04-30 21:00 9.11008 123.30348 29511 ft 427 kts 154°
2026-04-30 21:01 9.05613 123.32823 29176 ft 435 kts 154°
2026-04-30 21:01 9.02822 123.34103 29081 ft 446 kts 154°
2026-04-30 21:01 8.97191 123.36752 29955 ft 434 kts 153°
2026-04-30 21:02 8.94523 123.38059 30229 ft 421 kts 153°
2026-04-30 21:02 8.91898 123.39343 30357 ft 414 kts 153°
2026-04-30 21:02 8.89337 123.40577 30394 ft 404 kts 153°
2026-04-30 21:03 8.84173 123.43007 30394 ft 419 kts 154°
2026-04-30 21:03 8.78827 123.45492 30399 ft 428 kts 154°
2026-04-30 21:04 8.73396 123.48016 30395 ft 429 kts 154°
2026-04-30 21:04 8.65365 123.51772 30399 ft 407 kts 154°
2026-04-30 21:05 8.60289 123.54150 30404 ft 400 kts 154°
2026-04-30 21:05 8.55224 123.56518 30534 ft 405 kts 154°
2026-04-30 21:06 8.52640 123.57725 30653 ft 413 kts 154°
2026-04-30 21:06 8.50007 123.58952 30773 ft 419 kts 154°
2026-04-30 21:06 8.47335 123.60198 30886 ft 425 kts 154°
2026-04-30 21:06 8.44668 123.61443 31006 ft 431 kts 154°
2026-04-30 21:07 8.41923 123.62725 31125 ft 437 kts 154°
2026-04-30 21:07 8.39150 123.64020 31240 ft 442 kts 154°
2026-04-30 21:07 8.36338 123.65332 31359 ft 446 kts 154°
2026-04-30 21:07 8.33509 123.66650 31479 ft 451 kts 154°
2026-04-30 21:08 8.30650 123.67980 31640 ft 453 kts 154°
2026-04-30 21:08 8.27766 123.69320 31769 ft 457 kts 154°
2026-04-30 21:08 8.24874 123.70666 31887 ft 457 kts 154°
2026-04-30 21:08 8.22010 123.72000 31916 ft 450 kts 154°
2026-04-30 21:09 8.16383 123.74622 31916 ft 446 kts 154°
2026-04-30 21:09 8.10746 123.77250 31918 ft 445 kts 154°
2026-04-30 21:10 8.05110 123.79874 31915 ft 445 kts 154°
2026-04-30 21:10 7.99484 123.82496 31917 ft 445 kts 154°
2026-04-30 21:11 7.93861 123.85115 31914 ft 445 kts 154°
2026-04-30 21:11 7.88239 123.87725 31911 ft 444 kts 154°
2026-04-30 21:12 7.82622 123.90334 31906 ft 444 kts 154°
2026-04-30 21:12 7.77006 123.92946 31910 ft 444 kts 154°
2026-04-30 21:13 7.71423 123.95540 31908 ft 444 kts 154°
2026-04-30 21:13 7.65796 123.98147 31911 ft 444 kts 154°
2026-04-30 21:14 7.60221 124.00736 31905 ft 443 kts 154°
2026-04-30 21:14 7.54621 124.03343 31899 ft 443 kts 154°
2026-04-30 21:15 7.49020 124.05946 31898 ft 443 kts 154°
2026-04-30 21:15 7.43416 124.08548 31897 ft 443 kts 154°
2026-04-30 21:16 7.37813 124.11142 31895 ft 443 kts 154°
2026-04-30 21:16 7.32202 124.13737 31894 ft 443 kts 154°
2026-04-30 21:17 7.26604 124.16339 31894 ft 443 kts 154°
2026-04-30 21:17 7.20997 124.18944 31889 ft 443 kts 154°
2026-04-30 21:18 7.15590 124.21874 31890 ft 441 kts 142°
2026-04-30 21:18 7.10812 124.25743 31894 ft 441 kts 140°
2026-04-30 21:19 7.06033 124.29608 31897 ft 441 kts 140°
2026-04-30 21:19 7.01284 124.33449 31895 ft 441 kts 140°
2026-04-30 21:20 6.96501 124.37329 31813 ft 444 kts 140°
2026-04-30 21:20 6.94070 124.39301 30903 ft 452 kts 140°
2026-04-30 21:20 6.91629 124.41276 30309 ft 448 kts 140°
2026-04-30 21:21 6.89203 124.43236 29671 ft 444 kts 140°
2026-04-30 21:21 6.86805 124.45175 29069 ft 439 kts 140°
2026-04-30 21:21 6.82121 124.48962 27924 ft 430 kts 140°
2026-04-30 21:22 6.79798 124.50845 27360 ft 426 kts 140°
2026-04-30 21:22 6.72954 124.56396 25722 ft 415 kts 140°
2026-04-30 21:23 6.70711 124.58211 25191 ft 412 kts 140°
2026-04-30 21:23 6.68485 124.60011 24697 ft 409 kts 140°
2026-04-30 21:23 6.64054 124.63530 23700 ft 403 kts 141°
2026-04-30 21:24 6.61842 124.65207 23159 ft 401 kts 142°
2026-04-30 21:24 6.59614 124.66870 22677 ft 397 kts 142°
2026-04-30 21:24 6.57400 124.68520 22200 ft 393 kts 142°
2026-04-30 21:24 6.55213 124.70159 21727 ft 390 kts 142°
2026-04-30 21:25 6.50894 124.73418 20769 ft 385 kts 142°
2026-04-30 21:25 6.48755 124.75037 20283 ft 383 kts 142°
2026-04-30 21:25 6.46633 124.76646 19790 ft 381 kts 142°
2026-04-30 21:26 6.42475 124.79802 19204 ft 367 kts 141°
2026-04-30 21:26 6.40471 124.81322 19093 ft 355 kts 142°
2026-04-30 21:27 6.36425 124.83823 18863 ft 335 kts 162°
2026-04-30 21:27 6.34148 124.84113 18754 ft 327 kts 181°
2026-04-30 21:27 6.31952 124.83652 18645 ft 320 kts 200°
2026-04-30 21:28 6.28638 124.80908 18418 ft 307 kts 237°
2026-04-30 21:28 6.27787 124.78963 18226 ft 303 kts 255°
2026-04-30 21:28 6.27985 124.74824 17877 ft 299 kts 292°
2026-04-30 21:29 6.28979 124.72999 17886 ft 298 kts 309°
2026-04-30 21:29 6.33657 124.68913 17887 ft 297 kts 325°
2026-04-30 21:30 6.36982 124.66440 17887 ft 297 kts 325°
2026-04-30 21:31 6.42678 124.65080 17885 ft 287 kts 17°
2026-04-30 21:31 6.46120 124.66925 17879 ft 280 kts 47°
2026-04-30 21:32 6.47840 124.69629 17880 ft 276 kts 73°
2026-04-30 21:32 6.48215 124.72165 17878 ft 275 kts 94°
2026-04-30 21:32 6.48052 124.73421 17880 ft 275 kts 104°
2026-04-30 21:32 6.47381 124.75213 17879 ft 275 kts 119°
2026-04-30 21:33 6.46240 124.76760 17886 ft 276 kts 134°
2026-04-30 21:33 6.43299 124.79269 17882 ft 278 kts 141°
2026-04-30 21:33 6.41246 124.80808 17885 ft 278 kts 142°
2026-04-30 21:34 6.40194 124.81590 17883 ft 278 kts 142°
2026-04-30 21:34 6.37125 124.84448 17415 ft 325 kts 127°
2026-04-30 21:34 6.35795 124.86276 17019 ft 328 kts 123°
2026-04-30 21:35 6.34544 124.88196 16594 ft 328 kts 122°
2026-04-30 21:35 6.33320 124.90129 16173 ft 328 kts 122°
2026-04-30 21:35 6.32080 124.92058 15751 ft 328 kts 122°
2026-04-30 21:35 6.30813 124.93965 15328 ft 328 kts 124°
2026-04-30 21:36 6.29377 124.95762 14900 ft 329 kts 129°
2026-04-30 21:36 6.27902 124.97528 14467 ft 330 kts 129°
2026-04-30 21:37 6.23434 125.02818 13119 ft 331 kts 129°
2026-04-30 21:37 6.21966 125.04558 12673 ft 329 kts 129°
2026-04-30 21:37 6.20489 125.06312 12223 ft 328 kts 129°
2026-04-30 21:37 6.19019 125.08059 11773 ft 327 kts 129°
2026-04-30 21:38 6.17556 125.09804 11325 ft 326 kts 129°
2026-04-30 21:38 6.16097 125.11543 10868 ft 325 kts 129°
2026-04-30 21:38 6.14640 125.13276 10413 ft 324 kts 128°
2026-04-30 21:38 6.13195 125.14992 10198 ft 315 kts 129°
2026-04-30 21:39 6.11776 125.16617 10085 ft 303 kts 134°
2026-04-30 21:39 6.10109 125.17852 9933 ft 296 kts 150°
2026-04-30 21:39 6.08194 125.18570 9737 ft 294 kts 165°
2026-04-30 21:39 6.06164 125.18861 9373 ft 294 kts 171°
2026-04-30 21:40 6.04133 125.19105 8962 ft 294 kts 171°
2026-04-30 21:40 6.02107 125.19350 8551 ft 293 kts 171°
2026-04-30 21:40 6.00084 125.19593 8136 ft 292 kts 171°
2026-04-30 21:40 5.98068 125.19835 7726 ft 292 kts 171°
2026-04-30 21:41 5.96051 125.20078 7316 ft 291 kts 171°
2026-04-30 21:41 5.94040 125.20322 6909 ft 290 kts 171°
2026-04-30 21:41 5.92037 125.20569 6499 ft 290 kts 171°
2026-04-30 21:41 5.90056 125.20545 6076 ft 292 kts 194°
2026-04-30 21:42 5.88321 125.19521 5649 ft 293 kts 227°
2026-04-30 21:42 5.87357 125.17743 5222 ft 292 kts 255°
2026-04-30 21:42 5.87020 125.15745 4798 ft 290 kts 266°
2026-04-30 21:42 5.87034 125.13723 4312 ft 288 kts 285°
2026-04-30 21:43 5.87954 125.12005 3936 ft 278 kts 319°
2026-04-30 21:43 5.89591 125.11096 3613 ft 266 kts 346°
2026-04-30 21:43 5.91355 125.10796 3275 ft 246 kts 356°
2026-04-30 21:43 5.92974 125.10717 2930 ft 222 kts 359°
2026-04-30 21:44 5.94456 125.10672 2624 ft 205 kts 359°
2026-04-30 21:44 5.95857 125.10604 2343 ft 198 kts 357°
2026-04-30 21:44 5.97164 125.10514 2093 ft 179 kts 356°
2026-04-30 21:44 5.98348 125.10413 1814 ft 164 kts 355°
2026-04-30 21:45 5.99447 125.10308 1613 ft 152 kts 354°
2026-04-30 21:45 6.00462 125.10204 1377 ft 145 kts 355°
2026-04-30 21:45 6.01457 125.10096 1171 ft 142 kts 354°
2026-04-30 21:45 6.02439 125.09986 959 ft 142 kts 354°
2026-04-30 21:46 6.03415 125.09876 755 ft 141 kts 353°
2026-04-30 21:46 6.04390 125.09788 555 ft 140 kts 353°
2026-04-30 21:46 6.05250 125.09685 513 ft 91 kts 353°
2026-04-30 21:46 6.05594 125.09646 513 ft 23 kts 354°
2026-04-30 21:47 6.05754 125.09628 514 ft 23 kts 353°
2026-04-30 21:47 6.05819 125.09662 514 ft 10 kts 78°
2026-04-30 21:47 6.05825 125.09728 514 ft 9 kts 85°
2026-04-30 21:47 6.05832 125.09785 514 ft 8 kts 82°
2026-04-30 21:48 6.05838 125.09833 514 ft 6 kts 82°
2026-04-30 21:48 6.05864 125.09863 514 ft 6 kts 24°
2026-04-30 21:48 6.05896 125.09870 514 ft 4 kts 28°
2026-04-30 21:48 6.05907 125.09914 514 ft 6 kts 85°
2026-04-30 21:49 6.05908 125.09930 514 ft 0 kts 84°
2026-04-30 21:49 6.05908 125.09931 514 ft 0 kts 84°